Tracking 30107 objects as of 18-Jan-2025
HD Live streaming from Space Station
objects crossing your sky now

RADUGA 2

Track RADUGA 2 now!
RADUGA 2 is classified as:


NORAD ID: 9416
Int'l Code: 1976-092A
Perigee: 35,665.8 km
Apogee: 35,914.6 km
Inclination: 4.8 °
Period: 1,435.9 minutes
Semi major axis: 42161 km
RCS: 0.1428 m2 (medium)
Launch date: September 11, 1976
Source: Commonwealth of Independent States (former USSR) (CIS)
Launch site: TYURATAM MISSILE AND SPACE COMPLEX (TTMTR)
Your satellite tracking list
Your tracking list is empty




NASA's NSSDC Master Catalog

Two Line Element Set (TLE):
1 09416U 76092A   25017.76810951 -.00000178  00000-0  00000-0 0  9993
2 09416   4.8086 277.3595 0029506  23.3548 178.2610  1.00284355124171
Source of the keplerian elements: AFSPC